ISAT (43879 NORAD) Tracking and Keplerian Element Data

This shows tracking and keplerian element data for the satellite.

Feedback or suggestion? Click here.




ElementValue
Catalog43879
NameISAT
Epoch Orbit2089
Epoch Day135.94758026
Epoch Year2019
RAAN44.4391
Inclination97.7202
Eccentricity0.00143
Argument of Perigee132.6357
Mean Anonmoly227.6073
Mean Motion14.95959993
Decay Rate6.02E-06
L11 43879U 18111D 19135.94758026 .00000602 00000-0 58831-4 0 9990
L22 43879 097.7202 044.4391 0014300 132.6357 227.6073 14.95959993020899

Live tracking and technical data element details for ISAT (NORAD 43879). ISAT can be tracked NOW for your location showing map with azimuth and elevation plus other details from your city location.

Track the satellite on the map from your city or location and see movement details for azimuth, elevation, latitude, longitude, range, height, and movement on the map or in text.







IsCatalogInMostPopularTable: catalog: 43879, numindb: 112
Update: records affected: 1



GetName: 43879 ISAT

Hit Count: updated at: Thu, 23 May 2019 14:46:22 GMT